Location: Newark
(15.4608°S, 41.1635°W)
Time: 00:24:01
(UTC+00:00)

Vanguard 3 - Pass Details

Date: 04 August 2021
Orbit: 510 x 3260 km, 33.3° (Epoch: 20 September)

Event Time Altitude Azimuth Distance (km) Brightness Sun altitude
Rises 16:13:30 0° 272° (W) 3,097 10.4 51.6°
Reaches altitude 10° 16:16:16 10° 292° (WNW) 2,446 10.3 51.3°
Maximum altitude 16:20:12 18° 335° (NNW) 2,317 10.6 50.7°
Drops below altitude 10° 16:25:34 10° 15° (NNE) 3,498 10.9 50.0°
Sets 16:30:44 0° 30° (NNE) 5,076 11.4 49.2°
